Regional Weather Roundup
Issued by NWS

Home | Current Version | Previous Version | Graphics & Text | Print | Product List | Glossary On
Versions: 1 2 3 4 5 6 7 8 9 10 11 12 13 14 15 16 17 18 19 20 21 22 23 24 25 26 27 28 29 30 31 32 33 34 35 36 37 38 39 40 41 42 43 44 45 46 47 48 49 50
631
ASUS43 KFSD 251510
RWRSD

WEATHER ROUNDUP FOR SOUTH DAKOTA
NATIONAL WEATHER SERVICE SIOUX FALLS SD
1000 AM CDT MON JUL 25 2016

NOTE: "FAIR" INDICATES FEW OR NO CLOUDS BELOW 12,000 FEET WITH NO
SIGNIFICANT WEATHER AND/OR OBSTRUCTIONS TO VISIBILITY.


SDZ001>005-009-010-012>017-251600-
NORTHWEST AND NORTH CENTRAL SOUTH DAKOTA

CITY           SKY/WX    TMP DP  RH WIND       PRES   REMARKS
BUFFALO          N/A     78  52  40 S6        29.99R
FAITH            N/A     79  55  43 S20       30.04S
MOBRIDGE       SUNNY     82  59  45 S10       30.02S
$$

SDZ012>016-024>037-041>051-057-063-072>074-251600-
SOUTHWEST AND SOUTH CENTRAL SOUTH DAKOTA

CITY           SKY/WX    TMP DP  RH WIND       PRES   REMARKS
RAPID CTY ARPT SUNNY     78  56  46 S23G31    30.09S
PIERRE         LGT RAIN  83  56  39 S20       30.05F
CUSTER         SUNNY     72  52  49 VRB5      30.23S
ELLSWORTH AFB  SUNNY     78  57  49 S20       30.08R
PHILIP         SUNNY     84  59  42 SW14      30.06F
PINE RIDGE     SUNNY     77  60  55 S14G23    30.14S
WINNER         FAIR      81  48  31 S17       30.13S
$$

SDZ004>011-016>023-039-040-251600-
NORTHEAST SOUTH DAKOTA

CITY           SKY/WX    TMP DP  RH WIND       PRES   REMARKS
ABERDEEN       MOSUNNY   75  61  61 S8        30.07F
WATERTOWN      SUNNY     78  63  59 SW9       30.11F
BROOKINGS      SUNNY     76  65  68 W3        30.13R
SISSETON         N/A     81  63  54 SW7       30.06F
$$

SDZ017-020-022-023-036>040-048>070-251600-
SOUTHEAST SOUTH DAKOTA

CITY           SKY/WX    TMP DP  RH WIND       PRES   REMARKS
SIOUX FALLS    MOSUNNY   77  63  61 SW5       30.13R
HURON          MOSUNNY   79  63  57 S8        30.09S
CHAMBERLAIN    SUNNY     80  62  54 S12       30.12S
MITCHELL       SUNNY     80  64  58 S10       30.12S
YANKTON        SUNNY     75  63  64 CALM      30.12S
$$

ABBREVIATIONS USED IN REMARKS
   TC - TEMPERATURE IN CELSIUS
  WCI - WIND CHILL INDEX
   HX - HEAT INDEX
  VSB - VISIBILITY





USA.gov is the U.S. government's official web portal to all federal, state and local government web resources and services.